Time,TemperatureF,DewpointF,PressureIn,WindDirection,WindDirectionDegrees,WindSpeedMPH,WindSpeedGustMPH,Humidity,HourlyPrecipIn,Conditions,Clouds,dailyrainin,SoftwareType,DateUTC
2013-02-24 00:00:00,31.8,24.5,29.88,SW,233,2.6,7.0,74,0.00,RA,,0.00,WeatherDisplay:10.37,2013-02-24 05:00:00,
2013-02-24 00:05:00,31.8,24.1,29.89,WSW,255,3.1,7.0,73,0.00,RA,,0.00,WeatherDisplay:10.37,2013-02-24 05:05:00,
2013-02-24 00:10:00,31.8,24.1,29.89,SW,219,1.1,7.0,73,0.00,CLR,,0.00,WeatherDisplay:10.37,2013-02-24 05:10:00,
2013-02-24 00:15:00,31.8,24.1,29.89,SW,229,0.6,7.0,73,0.00,CLR,,0.00,WeatherDisplay:10.37,2013-02-24 05:15:00,
2013-02-24 00:20:00,31.7,24.7,29.89,SW,228,0.9,7.0,75,0.00,CLR,,0.00,WeatherDisplay:10.37,2013-02-24 05:20:00,
2013-02-24 00:25:00,31.7,24.4,29.89,SSW,210,0.3,7.0,74,0.00,CLR,,0.00,WeatherDisplay:10.37,2013-02-24 05:25:00,
2013-02-24 00:30:00,31.7,24.4,29.89,WSW,242,1.7,7.0,74,0.00,CLR,,0.00,WeatherDisplay:10.37,2013-02-24 05:30:00,
2013-02-24 00:35:00,31.6,24.3,29.89,SW,225,2.5,7.0,74,0.00,CLR,,0.00,WeatherDisplay:10.37,2013-02-24 05:35:00,
2013-02-24 00:40:00,31.6,24.6,29.89,SSE,167,0.1,7.0,75,0.00,CLR,,0.00,WeatherDisplay:10.37,2013-02-24 05:40:00,
2013-02-24 00:45:00,31.5,24.2,29.89,SW,214,0.6,7.0,74,0.00,CLR,,0.00,WeatherDisplay:10.37,2013-02-24 05:45:00,
2013-02-24 00:50:00,31.5,24.2,29.89,WSW,244,2.5,7.0,74,0.00,CLR,,0.00,WeatherDisplay:10.37,2013-02-24 05:50:00,
2013-02-24 00:55:00,31.5,24.5,29.88,SSW,207,0.0,7.0,75,0.00,CLR,,0.00,WeatherDisplay:10.37,2013-02-24 05:55:00,
2013-02-24 01:00:00,31.5,24.2,29.88,SW,217,1.2,7.0,74,0.00,CLR,,0.00,WeatherDisplay:10.37,2013-02-24 06:00:00,
2013-02-24 01:05:00,31.4,24.1,29.89,SW,224,1.2,7.0,74,0.00,CLR,,0.00,WeatherDisplay:10.37,2013-02-24 06:05:00,
2013-02-24 01:10:00,31.4,24.4,29.88,SW,217,1.2,7.0,75,0.00,CLR,,0.00,WeatherDisplay:10.37,2013-02-24 06:10:00,
2013-02-24 01:15:00,31.4,24.1,29.88,WSW,239,1.7,7.0,74,0.00,CLR,,0.00,WeatherDisplay:10.37,2013-02-24 06:15:00,
2013-02-24 01:20:00,31.4,24.4,29.88,WSW,239,2.3,7.0,75,0.00,CLR,,0.00,WeatherDisplay:10.37,2013-02-24 06:20:00,
2013-02-24 01:25:00,31.4,24.1,29.88,WSW,250,1.9,7.0,74,0.00,CLR,,0.00,WeatherDisplay:10.37,2013-02-24 06:25:00,
2013-02-24 01:30:00,31.4,24.4,29.87,SW,221,0.8,7.0,75,0.00,CLR,,0.00,WeatherDisplay:10.37,2013-02-24 06:30:00,
2013-02-24 01:35:00,31.3,24.3,29.87,SW,222,0.0,7.0,75,0.00,CLR,,0.00,WeatherDisplay:10.37,2013-02-24 06:35:00,
2013-02-24 01:40:00,31.2,24.2,29.87,SW,217,0.0,7.0,75,0.00,CLR,,0.00,WeatherDisplay:10.37,2013-02-24 06:40:00,
2013-02-24 01:45:00,31.2,24.2,29.87,SW,224,0.2,7.0,75,0.00,CLR,,0.00,WeatherDisplay:10.37,2013-02-24 06:45:00,
2013-02-24 01:50:00,31.2,24.2,29.87,SW,228,0.9,7.0,75,0.00,CLR,,0.00,WeatherDisplay:10.37,2013-02-24 06:50:00,
2013-02-24 01:55:00,31.2,24.2,29.87,SSW,212,0.0,7.0,75,0.00,CLR,,0.00,WeatherDisplay:10.37,2013-02-24 06:55:00,
2013-02-24 02:00:00,31.1,23.8,29.87,SSE,152,0.1,7.0,74,0.00,CLR,,0.00,WeatherDisplay:10.37,2013-02-24 07:00:00,
2013-02-24 02:05:00,31.1,24.1,29.87,South,188,0.0,7.0,75,0.00,CLR,,0.00,WeatherDisplay:10.37,2013-02-24 07:05:00,
2013-02-24 02:10:00,31.0,24.0,29.86,South,188,0.0,7.0,75,0.00,CLR,,0.00,WeatherDisplay:10.37,2013-02-24 07:10:00,
2013-02-24 02:15:00,31.0,24.3,29.87,South,188,0.0,7.0,76,0.00,CLR,,0.00,WeatherDisplay:10.37,2013-02-24 07:15:00,
2013-02-24 02:20:00,30.9,23.9,29.87,SSW,208,0.9,7.0,75,0.00,CLR,,0.00,WeatherDisplay:10.37,2013-02-24 07:20:00,
2013-02-24 02:25:00,31.0,24.0,29.87,SW,222,0.4,7.0,75,0.00,CLR,,0.00,WeatherDisplay:10.37,2013-02-24 07:25:00,
2013-02-24 02:30:00,31.1,23.8,29.87,WSW,239,0.6,7.0,74,0.00,CLR,,0.00,WeatherDisplay:10.37,2013-02-24 07:30:00,
2013-02-24 02:35:00,31.1,24.1,29.87,SSW,212,0.0,7.0,75,0.00,CLR,,0.00,WeatherDisplay:10.37,2013-02-24 07:35:00,
2013-02-24 02:40:00,31.0,24.0,29.86,SSW,204,0.5,7.0,75,0.00,CLR,,0.00,WeatherDisplay:10.37,2013-02-24 07:40:00,
2013-02-24 02:45:00,31.1,24.1,29.87,SW,224,1.3,7.0,75,0.00,CLR,,0.00,WeatherDisplay:10.37,2013-02-24 07:45:00,
2013-02-24 02:50:00,31.1,23.8,29.86,SW,228,0.9,7.0,74,0.00,CLR,,0.00,WeatherDisplay:10.37,2013-02-24 07:50:00,
2013-02-24 02:55:00,31.2,23.9,29.87,SSW,212,0.4,7.0,74,0.00,CLR,,0.00,WeatherDisplay:10.37,2013-02-24 07:55:00,
2013-02-24 03:00:00,31.2,23.9,29.86,WSW,249,1.2,7.0,74,0.00,CLR,,0.00,WeatherDisplay:10.37,2013-02-24 08:00:00,
2013-02-24 03:05:00,31.2,23.5,29.87,WSW,253,0.9,7.0,73,0.00,CLR,,0.00,WeatherDisplay:10.37,2013-02-24 08:05:00,
2013-02-24 03:10:00,31.2,23.9,29.86,SW,222,1.0,7.0,74,0.00,CLR,,0.00,WeatherDisplay:10.37,2013-02-24 08:10:00,
2013-02-24 03:15:00,31.2,23.5,29.87,SSW,204,1.2,7.0,73,0.00,CLR,,0.00,WeatherDisplay:10.37,2013-02-24 08:15:00,
2013-02-24 03:20:00,31.2,23.2,29.87,SW,228,1.3,7.0,72,0.00,CLR,,0.00,WeatherDisplay:10.37,2013-02-24 08:20:00,
2013-02-24 03:25:00,31.3,23.3,29.87,SW,229,1.9,7.0,72,0.00,CLR,,0.00,WeatherDisplay:10.37,2013-02-24 08:25:00,
2013-02-24 03:30:00,31.4,23.1,29.86,SSW,212,1.8,7.0,71,0.00,CLR,,0.00,WeatherDisplay:10.37,2013-02-24 08:30:00,
2013-02-24 03:35:00,31.4,23.4,29.87,SW,226,0.9,7.0,72,0.00,CLR,,0.00,WeatherDisplay:10.37,2013-02-24 08:35:00,
2013-02-24 03:40:00,31.3,23.3,29.87,SSW,212,1.8,7.0,72,0.00,CLR,,0.00,WeatherDisplay:10.37,2013-02-24 08:40:00,
2013-02-24 03:45:00,31.4,23.1,29.87,SW,224,2.2,7.0,71,0.00,CLR,,0.00,WeatherDisplay:10.37,2013-02-24 08:45:00,
2013-02-24 03:50:00,31.3,23.3,29.87,WNW,290,3.1,7.0,72,0.00,CLR,,0.00,WeatherDisplay:10.37,2013-02-24 08:50:00,
2013-02-24 03:55:00,31.4,23.1,29.87,SSW,203,1.8,7.0,71,0.00,CLR,,0.00,WeatherDisplay:10.37,2013-02-24 08:55:00,
2013-02-24 04:00:00,31.4,23.1,29.87,SSW,212,2.8,7.0,71,0.00,CLR,,0.00,WeatherDisplay:10.37,2013-02-24 09:00:00,
2013-02-24 04:05:00,31.4,23.1,29.87,WSW,242,2.3,7.0,71,0.00,CLR,,0.00,WeatherDisplay:10.37,2013-02-24 09:05:00,
2013-02-24 04:10:00,31.4,23.1,29.87,SW,222,2.4,7.0,71,0.00,CLR,,0.00,WeatherDisplay:10.37,2013-02-24 09:10:00,
2013-02-24 04:15:00,31.4,23.1,29.86,SW,219,3.5,7.0,71,0.00,CLR,,0.00,WeatherDisplay:10.37,2013-02-24 09:15:00,
2013-02-24 04:20:00,31.4,23.4,29.86,SW,229,1.2,7.0,72,0.00,CLR,,0.00,WeatherDisplay:10.37,2013-02-24 09:20:00,
2013-02-24 04:25:00,31.3,23.3,29.86,West,267,2.1,8.1,72,0.00,CLR,,0.00,WeatherDisplay:10.37,2013-02-24 09:25:00,
2013-02-24 04:30:00,31.3,23.3,29.87,SW,225,2.1,8.1,72,0.00,CLR,,0.00,WeatherDisplay:10.37,2013-02-24 09:30:00,
2013-02-24 04:35:00,31.3,23.3,29.86,SW,219,3.0,8.1,72,0.00,CLR,,0.00,WeatherDisplay:10.37,2013-02-24 09:35:00,
2013-02-24 04:40:00,31.3,23.3,29.86,WSW,242,1.1,9.2,72,0.00,CLR,,0.00,WeatherDisplay:10.37,2013-02-24 09:40:00,
2013-02-24 04:45:00,31.3,23.6,29.86,SW,226,2.0,9.2,73,0.00,CLR,,0.00,WeatherDisplay:10.37,2013-02-24 09:45:00,
2013-02-24 04:50:00,31.2,23.2,29.86,West,266,3.4,9.2,72,0.00,CLR,,0.00,WeatherDisplay:10.37,2013-02-24 09:50:00,
2013-02-24 04:55:00,31.2,23.2,29.86,SW,225,3.3,9.2,72,0.00,CLR,,0.00,WeatherDisplay:10.37,2013-02-24 09:55:00,
2013-02-24 05:00:00,31.2,23.2,29.86,WSW,256,1.8,9.2,72,0.00,CLR,,0.00,WeatherDisplay:10.37,2013-02-24 10:00:00,
2013-02-24 05:05:00,31.2,23.5,29.86,SW,231,4.1,9.2,73,0.00,CLR,,0.00,WeatherDisplay:10.37,2013-02-24 10:05:00,
2013-02-24 05:10:00,31.2,23.5,29.86,WSW,250,1.1,9.2,73,0.00,CLR,,0.00,WeatherDisplay:10.37,2013-02-24 10:10:00,
2013-02-24 05:15:00,31.1,23.5,29.86,WSW,238,3.6,9.2,73,0.00,CLR,,0.00,WeatherDisplay:10.37,2013-02-24 10:15:00,
2013-02-24 05:20:00,31.1,23.8,29.86,SW,217,1.2,9.2,74,0.00,CLR,,0.00,WeatherDisplay:10.37,2013-02-24 10:20:00,
2013-02-24 05:25:00,31.1,23.8,29.86,WSW,253,1.3,9.2,74,0.00,CLR,,0.00,WeatherDisplay:10.37,2013-02-24 10:25:00,
2013-02-24 05:30:00,31.0,23.7,29.87,SW,217,3.1,9.2,74,0.00,CLR,,0.00,WeatherDisplay:10.37,2013-02-24 10:30:00,
2013-02-24 05:35:00,31.1,23.5,29.87,SSW,203,3.9,9.2,73,0.00,CLR,,0.00,WeatherDisplay:10.37,2013-02-24 10:35:00,
2013-02-24 05:40:00,31.1,23.5,29.87,WSW,245,2.4,9.2,73,0.00,CLR,,0.00,WeatherDisplay:10.37,2013-02-24 10:40:00,
2013-02-24 05:45:00,31.1,23.5,29.87,West,259,5.6,9.2,73,0.00,CLR,,0.00,WeatherDisplay:10.37,2013-02-24 10:45:00,
2013-02-24 05:50:00,31.1,23.8,29.87,WSW,255,2.0,9.2,74,0.00,CLR,,0.00,WeatherDisplay:10.37,2013-02-24 10:50:00,
2013-02-24 05:55:00,31.1,23.5,29.87,WSW,242,3.5,10.4,73,0.00,CLR,,0.00,WeatherDisplay:10.37,2013-02-24 10:55:00,
2013-02-24 06:00:00,31.1,23.8,29.87,SSW,211,2.4,10.4,74,0.00,CLR,,0.00,WeatherDisplay:10.37,2013-02-24 11:00:00,
2013-02-24 06:05:00,31.1,23.5,29.88,SW,235,2.9,10.4,73,0.00,CLR,,0.00,WeatherDisplay:10.37,2013-02-24 11:05:00,
2013-02-24 06:10:00,31.0,23.7,29.88,SW,229,6.2,10.4,74,0.00,CLR,,0.00,WeatherDisplay:10.37,2013-02-24 11:10:00,
2013-02-24 06:15:00,31.0,23.4,29.88,West,270,4.9,10.4,73,0.00,CLR,,0.00,WeatherDisplay:10.37,2013-02-24 11:15:00,
2013-02-24 06:20:00,31.0,23.4,29.88,West,264,4.9,10.4,73,0.00,CLR,,0.00,WeatherDisplay:10.37,2013-02-24 11:20:00,
2013-02-24 06:25:00,31.0,23.4,29.88,West,274,1.9,10.4,73,0.00,CLR,,0.00,WeatherDisplay:10.37,2013-02-24 11:25:00,
2013-02-24 06:30:00,31.0,23.4,29.88,WSW,245,1.8,10.4,73,0.00,CLR,,0.00,WeatherDisplay:10.37,2013-02-24 11:30:00,
2013-02-24 06:35:00,30.9,23.3,29.88,SW,231,1.8,10.4,73,0.00,CLR,,0.00,WeatherDisplay:10.37,2013-02-24 11:35:00,
2013-02-24 06:40:00,30.9,23.3,29.88,WSW,238,0.6,10.4,73,0.00,CLR,,0.00,WeatherDisplay:10.37,2013-02-24 11:40:00,
2013-02-24 06:45:00,30.9,23.3,29.88,SSW,211,1.9,10.4,73,0.00,CLR,,0.00,WeatherDisplay:10.37,2013-02-24 11:45:00,
2013-02-24 06:50:00,30.8,23.5,29.88,SW,217,1.5,10.4,74,0.00,CLR,,0.00,WeatherDisplay:10.37,2013-02-24 11:50:00,
2013-02-24 06:55:00,30.8,23.2,29.88,WSW,238,4.4,10.4,73,0.00,CLR,,0.00,WeatherDisplay:10.37,2013-02-24 11:55:00,
2013-02-24 07:00:00,30.8,23.2,29.88,SW,225,5.0,11.0,73,0.00,CLR,,0.00,WeatherDisplay:10.37,2013-02-24 12:00:00,
2013-02-24 07:05:00,30.8,23.2,29.88,WSW,250,2.1,11.5,73,0.00,CLR,,0.00,WeatherDisplay:10.37,2013-02-24 12:05:00,
2013-02-24 07:10:00,30.8,22.8,29.88,SW,232,3.6,11.5,72,0.00,CLR,,0.00,WeatherDisplay:10.37,2013-02-24 12:10:00,
2013-02-24 07:15:00,30.8,23.2,29.88,South,187,4.0,11.5,73,0.00,CLR,,0.00,WeatherDisplay:10.37,2013-02-24 12:15:00,
2013-02-24 07:20:00,30.7,23.1,29.88,SW,228,2.8,11.5,73,0.00,CLR,,0.00,WeatherDisplay:10.37,2013-02-24 12:20:00,
2013-02-24 07:25:00,30.7,23.1,29.88,West,273,2.7,11.5,73,0.00,CLR,,0.00,WeatherDisplay:10.37,2013-02-24 12:25:00,
2013-02-24 07:30:00,30.7,23.1,29.88,SW,224,3.2,11.5,73,0.00,CLR,,0.00,WeatherDisplay:10.37,2013-02-24 12:30:00,
2013-02-24 07:35:00,30.7,23.1,29.88,West,276,4.1,11.5,73,0.00,CLR,,0.00,WeatherDisplay:10.37,2013-02-24 12:35:00,
2013-02-24 07:40:00,30.7,23.1,29.88,SW,217,6.1,11.5,73,0.00,CLR,,0.00,WeatherDisplay:10.37,2013-02-24 12:40:00,
2013-02-24 07:45:00,30.7,23.4,29.88,SW,233,3.3,11.5,74,0.00,CLR,,0.00,WeatherDisplay:10.37,2013-02-24 12:45:00,
2013-02-24 07:50:00,30.7,23.4,29.88,SSW,203,3.0,11.5,74,0.00,CLR,,0.00,WeatherDisplay:10.37,2013-02-24 12:50:00,
2013-02-24 07:55:00,30.7,23.4,29.88,WSW,255,4.2,11.5,74,0.00,CLR,,0.00,WeatherDisplay:10.37,2013-02-24 12:55:00,
2013-02-24 08:00:00,30.7,23.7,29.88,SW,225,4.4,11.5,75,0.00,CLR,,0.00,WeatherDisplay:10.37,2013-02-24 13:00:00,
2013-02-24 08:05:00,30.8,23.8,29.88,WSW,257,4.7,11.5,75,0.00,CLR,,0.00,WeatherDisplay:10.37,2013-02-24 13:05:00,
2013-02-24 08:10:00,30.8,23.8,29.88,West,264,5.2,11.5,75,0.00,CLR,,0.00,WeatherDisplay:10.37,2013-02-24 13:10:00,
2013-02-24 08:15:00,30.9,23.9,29.88,SW,231,0.8,11.5,75,0.00,CLR,,0.00,WeatherDisplay:10.37,2013-02-24 13:15:00,
2013-02-24 08:20:00,31.1,23.8,29.88,WSW,240,3.1,11.5,74,0.00,CLR,,0.00,WeatherDisplay:10.37,2013-02-24 13:20:00,
2013-02-24 08:25:00,31.2,24.2,29.88,SSW,203,2.4,11.5,75,0.00,CLR,,0.00,WeatherDisplay:10.37,2013-02-24 13:25:00,
2013-02-24 08:30:00,31.3,24.0,29.88,SW,231,2.8,11.5,74,0.00,CLR,,0.00,WeatherDisplay:10.37,2013-02-24 13:30:00,
2013-02-24 08:35:00,31.4,23.7,29.88,SW,219,3.4,11.5,73,0.00,CLR,,0.00,WeatherDisplay:10.37,2013-02-24 13:35:00,
2013-02-24 08:40:00,31.3,24.0,29.88,West,264,4.5,11.5,74,0.00,CLR,,0.00,WeatherDisplay:10.37,2013-02-24 13:40:00,
2013-02-24 08:46:00,31.4,24.1,29.88,WSW,250,3.2,11.5,74,0.00,CLR,,0.00,WeatherDisplay:10.37,2013-02-24 13:46:00,
2013-02-24 08:51:00,31.3,24.0,29.88,SSW,212,3.9,11.5,74,0.00,CLR,,0.00,WeatherDisplay:10.37,2013-02-24 13:51:00,
2013-02-24 08:56:00,31.2,23.9,29.88,SW,231,2.1,11.5,74,0.00,CLR,,0.00,WeatherDisplay:10.37,2013-02-24 13:56:00,
2013-02-24 09:01:00,31.2,23.9,29.88,WSW,248,5.4,11.5,74,0.00,CLR,,0.00,WeatherDisplay:10.37,2013-02-24 14:01:00,
2013-02-24 09:06:00,31.2,23.9,29.88,WSW,256,4.9,11.5,74,0.00,CLR,,0.00,WeatherDisplay:10.37,2013-02-24 14:06:00,
2013-02-24 09:11:00,31.2,23.9,29.88,West,273,4.6,11.5,74,0.00,CLR,,0.00,WeatherDisplay:10.37,2013-02-24 14:11:00,
2013-02-24 09:16:00,31.3,24.0,29.88,West,279,2.3,11.5,74,0.00,CLR,,0.00,WeatherDisplay:10.37,2013-02-24 14:16:00,
2013-02-24 09:21:00,31.5,24.2,29.89,WSW,253,3.8,11.5,74,0.00,CLR,,0.00,WeatherDisplay:10.37,2013-02-24 14:21:00,
2013-02-24 09:26:00,31.4,24.1,29.89,West,269,5.1,11.5,74,0.00,CLR,,0.00,WeatherDisplay:10.37,2013-02-24 14:26:00,
2013-02-24 09:31:00,31.4,24.4,29.89,SW,221,2.8,11.5,75,0.00,CLR,,0.00,WeatherDisplay:10.37,2013-02-24 14:31:00,
2013-02-24 09:36:00,31.3,24.3,29.89,West,266,2.9,11.5,75,0.00,CLR,,0.00,WeatherDisplay:10.37,2013-02-24 14:36:00,
2013-02-24 09:41:00,31.3,24.3,29.89,WNW,287,4.7,11.5,75,0.00,CLR,,0.00,WeatherDisplay:10.37,2013-02-24 14:41:00,
2013-02-24 09:46:00,31.4,24.4,29.89,WSW,256,3.1,11.5,75,0.00,CLR,,0.00,WeatherDisplay:10.37,2013-02-24 14:46:00,
2013-02-24 09:51:00,31.5,24.5,29.89,WSW,255,4.7,11.5,75,0.00,CLR,,0.00,WeatherDisplay:10.37,2013-02-24 14:51:00,
2013-02-24 09:56:00,31.5,24.8,29.89,West,263,3.3,11.5,76,0.00,CLR,,0.00,WeatherDisplay:10.37,2013-02-24 14:56:00,
2013-02-24 10:01:00,31.7,24.7,29.89,SSW,208,2.6,11.5,75,0.00,CLR,,0.00,WeatherDisplay:10.37,2013-02-24 15:01:00,
2013-02-24 10:06:00,31.9,24.6,29.89,SW,219,5.5,12.0,74,0.00,CLR,,0.00,WeatherDisplay:10.37,2013-02-24 15:06:00,
2013-02-24 10:11:00,32.0,24.6,29.89,WSW,250,3.1,12.0,74,0.00,CLR,,0.00,WeatherDisplay:10.37,2013-02-24 15:11:00,
2013-02-24 10:16:00,32.1,24.7,29.89,West,266,6.2,12.0,74,0.00,CLR,,0.00,WeatherDisplay:10.37,2013-02-24 15:16:00,
2013-02-24 10:21:00,32.1,25.1,29.89,WSW,250,4.5,12.0,75,0.00,CLR,,0.00,WeatherDisplay:10.37,2013-02-24 15:21:00,
2013-02-24 10:26:00,32.1,25.4,29.89,West,267,2.5,12.0,76,0.00,CLR,,0.00,WeatherDisplay:10.37,2013-02-24 15:26:00,
2013-02-24 10:31:00,32.1,26.0,29.89,West,264,5.2,12.0,78,0.00,CLR,,0.00,WeatherDisplay:10.37,2013-02-24 15:31:00,
2013-02-24 10:36:00,31.6,26.1,29.89,SW,226,2.4,12.0,80,0.00,CLR,,0.00,WeatherDisplay:10.37,2013-02-24 15:36:00,
2013-02-24 10:41:00,31.4,26.5,29.89,WSW,257,3.0,12.0,82,0.00,CLR,,0.00,WeatherDisplay:10.37,2013-02-24 15:41:00,
2013-02-24 10:46:00,31.3,26.1,29.89,WSW,239,5.6,12.0,81,0.00,CLR,,0.00,WeatherDisplay:10.37,2013-02-24 15:46:00,
2013-02-24 10:51:00,31.2,26.3,29.89,West,266,4.9,12.0,82,0.00,CLR,,0.00,WeatherDisplay:10.37,2013-02-24 15:51:00,
2013-02-24 10:56:00,30.9,26.3,29.89,SW,231,5.2,12.0,83,0.00,CLR,,0.00,WeatherDisplay:10.37,2013-02-24 15:56:00,
2013-02-24 11:01:00,30.9,26.6,29.89,SW,222,2.4,12.0,84,0.00,CLR,,0.00,WeatherDisplay:10.37,2013-02-24 16:01:00,
2013-02-24 11:06:00,31.0,26.4,29.89,West,274,4.8,12.0,83,0.00,CLR,,0.00,WeatherDisplay:10.37,2013-02-24 16:06:00,
2013-02-24 11:11:00,30.9,26.3,29.89,West,270,3.9,12.0,83,0.00,CLR,,0.00,WeatherDisplay:10.37,2013-02-24 16:11:00,
2013-02-24 11:16:00,30.6,26.3,29.89,WSW,248,6.5,12.0,84,0.00,CLR,,0.00,WeatherDisplay:10.37,2013-02-24 16:16:00,
2013-02-24 11:21:00,30.5,26.5,29.90,West,263,2.5,12.0,85,0.00,CLR,,0.00,WeatherDisplay:10.37,2013-02-24 16:21:00,
2013-02-24 11:26:00,30.6,26.3,29.90,WSW,245,4.3,12.0,84,0.00,CLR,,0.00,WeatherDisplay:10.37,2013-02-24 16:26:00,
2013-02-24 11:31:00,30.8,26.5,29.90,West,270,4.5,12.0,84,0.00,CLR,,0.00,WeatherDisplay:10.37,2013-02-24 16:31:00,
2013-02-24 11:36:00,31.0,26.7,29.90,SW,233,2.8,12.0,84,0.00,CLR,,0.00,WeatherDisplay:10.37,2013-02-24 16:36:00,
2013-02-24 11:41:00,31.1,26.5,29.90,WSW,256,4.4,12.0,83,0.00,CLR,,0.00,WeatherDisplay:10.37,2013-02-24 16:41:00,
2013-02-24 11:46:00,31.0,26.1,29.90,NW,316,6.8,12.0,82,0.00,CLR,,0.00,WeatherDisplay:10.37,2013-02-24 16:46:00,
2013-02-24 11:51:00,30.8,26.2,29.90,WSW,255,4.9,13.0,83,0.00,CLR,,0.00,WeatherDisplay:10.37,2013-02-24 16:51:00,
2013-02-24 11:56:00,30.8,26.8,29.90,SW,226,3.2,13.0,85,0.00,CLR,,0.00,WeatherDisplay:10.37,2013-02-24 16:56:00,
2013-02-24 12:01:00,31.0,26.7,29.90,West,264,3.7,13.0,84,0.00,CLR,,0.00,WeatherDisplay:10.37,2013-02-24 17:01:00,
2013-02-24 12:06:00,31.0,26.4,29.90,SW,224,4.0,13.0,83,0.00,CLR,,0.00,WeatherDisplay:10.37,2013-02-24 17:06:00,
2013-02-24 12:11:00,31.3,26.7,29.90,WSW,242,3.2,13.0,83,0.00,CLR,,0.00,WeatherDisplay:10.37,2013-02-24 17:11:00,
2013-02-24 12:16:00,31.5,26.6,29.90,SW,233,7.0,13.0,82,0.00,CLR,,0.00,WeatherDisplay:10.37,2013-02-24 17:16:00,
2013-02-24 12:21:00,31.4,26.5,29.90,West,260,4.9,13.0,82,0.00,CLR,,0.00,WeatherDisplay:10.37,2013-02-24 17:21:00,
2013-02-24 12:26:00,31.5,26.6,29.91,West,273,4.2,14.0,82,0.00,CLR,,0.00,WeatherDisplay:10.37,2013-02-24 17:26:00,
2013-02-24 12:31:00,31.7,26.8,29.91,West,279,4.0,14.0,82,0.00,CLR,,0.00,WeatherDisplay:10.37,2013-02-24 17:31:00,
2013-02-24 12:36:00,31.6,26.1,29.90,SW,229,7.6,14.0,80,0.00,CLR,,0.00,WeatherDisplay:10.37,2013-02-24 17:36:00,
2013-02-24 12:41:00,31.5,26.3,29.90,SSW,197,3.8,14.0,81,0.00,CLR,,0.00,WeatherDisplay:10.37,2013-02-24 17:41:00,
2013-02-24 12:46:00,31.6,26.7,29.90,WSW,255,6.1,14.0,82,0.00,CLR,,0.00,WeatherDisplay:10.37,2013-02-24 17:46:00,
2013-02-24 12:51:00,31.5,26.6,29.91,SSW,212,7.1,14.0,82,0.00,CLR,,0.00,WeatherDisplay:10.37,2013-02-24 17:51:00,
2013-02-24 12:56:00,31.6,26.7,29.91,West,264,3.2,14.0,82,0.00,CLR,,0.00,WeatherDisplay:10.37,2013-02-24 17:56:00,
2013-02-24 13:01:00,32.0,27.4,29.91,South,181,3.1,14.0,83,0.00,CLR,,0.00,WeatherDisplay:10.37,2013-02-24 18:01:00,
2013-02-24 13:06:00,32.6,26.8,29.91,SSW,205,5.8,14.0,79,0.00,CLR,,0.00,WeatherDisplay:10.37,2013-02-24 18:06:00,
2013-02-24 13:11:00,32.7,26.3,29.90,SSW,212,4.2,14.0,77,0.00,CLR,,0.00,WeatherDisplay:10.37,2013-02-24 18:11:00,
2013-02-24 13:16:00,32.5,26.4,29.91,WNW,285,3.3,14.0,78,0.00,CLR,,0.00,WeatherDisplay:10.37,2013-02-24 18:16:00,
2013-02-24 13:21:00,32.9,26.2,29.91,WNW,295,5.2,14.0,76,0.00,CLR,,0.00,WeatherDisplay:10.37,2013-02-24 18:21:00,
2013-02-24 13:26:00,33.1,25.4,29.90,West,259,7.9,14.0,73,0.00,CLR,,0.00,WeatherDisplay:10.37,2013-02-24 18:26:00,
2013-02-24 13:31:00,33.1,25.1,29.90,WSW,249,6.5,14.0,72,0.00,CLR,,0.00,WeatherDisplay:10.37,2013-02-24 18:31:00,
2013-02-24 13:36:00,32.8,24.8,29.90,WSW,257,6.0,14.0,72,0.00,CLR,,0.00,WeatherDisplay:10.37,2013-02-24 18:36:00,
2013-02-24 13:41:00,32.7,24.0,29.91,SW,219,8.1,14.0,70,0.00,CLR,,0.00,WeatherDisplay:10.37,2013-02-24 18:41:00,
2013-02-24 13:46:00,32.6,24.2,29.91,WNW,283,5.3,14.0,71,0.00,CLR,,0.00,WeatherDisplay:10.37,2013-02-24 18:46:00,
2013-02-24 13:51:00,32.6,24.6,29.91,West,279,6.7,14.0,72,0.00,CLR,,0.00,WeatherDisplay:10.37,2013-02-24 18:51:00,
2013-02-24 13:56:00,32.6,24.2,29.91,WSW,257,4.9,14.0,71,0.00,CLR,,0.00,WeatherDisplay:10.37,2013-02-24 18:56:00,
2013-02-24 14:01:00,32.6,24.6,29.91,WNW,297,4.8,14.0,72,0.00,CLR,,0.00,WeatherDisplay:10.37,2013-02-24 19:01:00,
2013-02-24 14:06:00,32.5,25.1,29.91,WSW,257,4.5,14.0,74,0.00,CLR,,0.00,WeatherDisplay:10.37,2013-02-24 19:06:00,
2013-02-24 14:11:00,32.3,25.6,29.91,West,278,5.7,14.0,76,0.00,CLR,,0.00,WeatherDisplay:10.37,2013-02-24 19:11:00,
2013-02-24 14:16:00,32.2,25.8,29.91,WSW,245,2.6,14.0,77,0.00,CLR,,0.00,WeatherDisplay:10.37,2013-02-24 19:16:00,
2013-02-24 14:21:00,32.2,25.8,29.91,WNW,295,3.9,14.0,77,0.00,CLR,,0.00,WeatherDisplay:10.37,2013-02-24 19:21:00,
2013-02-24 14:26:00,32.3,25.6,29.91,WSW,250,4.0,14.0,76,0.00,CLR,,0.00,WeatherDisplay:10.37,2013-02-24 19:26:00,
2013-02-24 14:31:00,32.8,24.8,29.91,SW,236,5.8,14.0,72,0.00,CLR,,0.00,WeatherDisplay:10.37,2013-02-24 19:31:00,
2013-02-24 14:36:00,33.1,24.0,29.91,WSW,240,5.7,14.0,69,0.00,CLR,,0.00,WeatherDisplay:10.37,2013-02-24 19:36:00,
2013-02-24 14:41:00,33.1,24.0,29.91,West,260,4.3,14.0,69,0.00,CLR,,0.00,WeatherDisplay:10.37,2013-02-24 19:41:00,
2013-02-24 14:46:00,32.9,23.8,29.92,SW,232,6.3,17.3,69,0.00,CLR,,0.00,WeatherDisplay:10.37,2013-02-24 19:46:00,
2013-02-24 14:51:00,32.9,24.2,29.92,SW,232,3.4,17.3,70,0.00,CLR,,0.00,WeatherDisplay:10.37,2013-02-24 19:51:00,
2013-02-24 14:56:00,33.0,24.3,29.92,West,276,4.2,17.3,70,0.00,CLR,,0.00,WeatherDisplay:10.37,2013-02-24 19:56:00,
2013-02-24 15:01:00,33.0,24.3,29.92,West,263,4.3,17.3,70,0.00,CLR,,0.00,WeatherDisplay:10.37,2013-02-24 20:01:00,
2013-02-24 15:06:00,33.1,24.4,29.92,WSW,254,3.4,17.3,70,0.00,CLR,,0.00,WeatherDisplay:10.37,2013-02-24 20:06:00,
2013-02-24 15:11:00,33.2,24.5,29.92,West,269,2.5,17.3,70,0.00,CLR,,0.00,WeatherDisplay:10.37,2013-02-24 20:11:00,
2013-02-24 15:16:00,33.5,24.1,29.92,NW,322,3.0,17.3,68,0.00,CLR,,0.00,WeatherDisplay:10.37,2013-02-24 20:16:00,
2013-02-24 15:21:00,33.5,24.1,29.93,SW,236,3.5,17.3,68,0.00,CLR,,0.00,WeatherDisplay:10.37,2013-02-24 20:21:00,
2013-02-24 15:26:00,33.5,24.1,29.93,WSW,257,3.3,17.3,68,0.00,CLR,,0.00,WeatherDisplay:10.37,2013-02-24 20:26:00,
2013-02-24 15:31:00,33.5,24.1,29.93,WSW,245,3.2,17.3,68,0.00,CLR,,0.00,WeatherDisplay:10.37,2013-02-24 20:31:00,
2013-02-24 15:36:00,33.3,24.2,29.93,WSW,241,3.8,17.3,69,0.00,CLR,,0.00,WeatherDisplay:10.37,2013-02-24 20:36:00,
2013-02-24 15:41:00,33.2,24.1,29.93,NW,311,2.3,17.3,69,0.00,CLR,,0.00,WeatherDisplay:10.37,2013-02-24 20:41:00,
2013-02-24 15:46:00,33.3,24.2,29.94,SSW,205,2.2,17.3,69,0.00,CLR,,0.00,WeatherDisplay:10.37,2013-02-24 20:46:00,
2013-02-24 15:51:00,33.3,23.9,29.94,SW,224,5.6,17.3,68,0.00,CLR,,0.00,WeatherDisplay:10.37,2013-02-24 20:51:00,
2013-02-24 15:56:00,33.1,23.3,29.94,West,280,6.1,17.3,67,0.00,CLR,,0.00,WeatherDisplay:10.37,2013-02-24 20:56:00,
2013-02-24 16:01:00,33.1,23.3,29.94,WSW,257,2.7,17.3,67,0.00,CLR,,0.00,WeatherDisplay:10.37,2013-02-24 21:01:00,
2013-02-24 16:06:00,33.0,23.2,29.94,West,266,4.9,17.3,67,0.00,CLR,,0.00,WeatherDisplay:10.37,2013-02-24 21:06:00,
2013-02-24 16:11:00,32.9,23.5,29.94,WSW,245,4.8,17.3,68,0.00,CLR,,0.00,WeatherDisplay:10.37,2013-02-24 21:11:00,
2013-02-24 16:16:00,32.9,23.8,29.95,West,259,6.6,17.3,69,0.00,CLR,,0.00,WeatherDisplay:10.37,2013-02-24 21:16:00,
2013-02-24 16:21:00,32.7,24.7,29.95,WSW,242,5.0,17.3,72,0.00,CLR,,0.00,WeatherDisplay:10.37,2013-02-24 21:21:00,
2013-02-24 16:26:00,32.4,24.7,29.95,West,277,4.8,17.3,73,0.00,CLR,,0.00,WeatherDisplay:10.37,2013-02-24 21:26:00,
2013-02-24 16:31:00,32.3,24.9,29.95,West,274,6.7,17.3,74,0.00,CLR,,0.00,WeatherDisplay:10.37,2013-02-24 21:31:00,
2013-02-24 16:36:00,32.1,25.4,29.96,SSW,198,6.7,17.3,76,0.00,CLR,,0.00,WeatherDisplay:10.37,2013-02-24 21:36:00,
2013-02-24 16:41:00,31.6,25.5,29.96,West,264,7.8,17.3,78,0.00,CLR,,0.00,WeatherDisplay:10.37,2013-02-24 21:41:00,
2013-02-24 16:46:00,31.3,25.5,29.96,West,280,5.9,17.3,79,0.00,CLR,,0.00,WeatherDisplay:10.37,2013-02-24 21:46:00,
2013-02-24 16:51:00,31.2,26.0,29.96,SW,219,4.2,17.3,81,0.00,CLR,,0.00,WeatherDisplay:10.37,2013-02-24 21:51:00,
2013-02-24 16:56:00,31.1,26.0,29.96,SW,226,2.8,17.3,81,0.00,CLR,,0.00,WeatherDisplay:10.37,2013-02-24 21:56:00,
2013-02-24 17:01:00,31.2,26.3,29.97,WSW,242,1.9,17.3,82,0.00,CLR,,0.00,WeatherDisplay:10.37,2013-02-24 22:01:00,
2013-02-24 17:06:00,31.2,26.3,29.97,SW,231,3.2,17.3,82,0.00,CLR,,0.00,WeatherDisplay:10.37,2013-02-24 22:06:00,
2013-02-24 17:11:00,31.0,26.1,29.97,WNW,295,4.5,17.3,82,0.00,CLR,,0.00,WeatherDisplay:10.37,2013-02-24 22:11:00,
2013-02-24 17:16:00,30.9,26.3,29.97,SSW,197,4.1,17.3,83,0.00,CLR,,0.00,WeatherDisplay:10.37,2013-02-24 22:16:00,
2013-02-24 17:21:00,30.9,26.3,29.98,WSW,256,4.4,17.3,83,0.00,CLR,,0.00,WeatherDisplay:10.37,2013-02-24 22:21:00,
2013-02-24 17:26:00,30.9,26.3,29.98,WSW,256,3.7,17.3,83,0.00,CLR,,0.00,WeatherDisplay:10.37,2013-02-24 22:26:00,
2013-02-24 17:31:00,30.9,26.1,29.98,SW,231,5.5,17.3,82,0.00,CLR,,0.00,WeatherDisplay:10.37,2013-02-24 22:31:00,
2013-02-24 17:36:00,30.9,26.1,29.98,SW,214,4.5,17.3,82,0.00,CLR,,0.00,WeatherDisplay:10.37,2013-02-24 22:36:00,
2013-02-24 17:41:00,30.8,25.7,29.98,SW,222,3.6,17.3,81,0.00,CLR,,0.00,WeatherDisplay:10.37,2013-02-24 22:41:00,
2013-02-24 17:46:00,30.8,25.7,29.98,NW,316,2.7,17.3,81,0.00,CLR,,0.00,WeatherDisplay:10.37,2013-02-24 22:46:00,
2013-02-24 17:51:00,30.7,25.9,29.98,West,267,1.6,17.3,82,0.00,CLR,,0.00,WeatherDisplay:10.37,2013-02-24 22:51:00,
2013-02-24 17:56:00,30.6,25.8,29.98,SSW,211,5.0,17.3,82,0.00,CLR,,0.00,WeatherDisplay:10.37,2013-02-24 22:56:00,
2013-02-24 18:01:00,30.5,25.7,29.99,West,267,4.6,17.3,82,0.00,CLR,,0.00,WeatherDisplay:10.37,2013-02-24 23:01:00,
2013-02-24 18:06:00,30.5,25.7,29.99,SW,232,5.6,17.3,82,0.00,CLR,,0.00,WeatherDisplay:10.37,2013-02-24 23:06:00,
2013-02-24 18:11:00,30.4,25.9,29.99,West,267,4.5,17.3,83,0.00,CLR,,0.00,WeatherDisplay:10.37,2013-02-24 23:11:00,
2013-02-24 18:16:00,30.3,25.8,29.99,WSW,256,5.2,17.3,83,0.00,CLR,,0.00,WeatherDisplay:10.37,2013-02-24 23:16:00,
2013-02-24 18:21:00,30.3,26.0,29.99,West,274,4.1,17.3,84,0.00,CLR,,0.00,WeatherDisplay:10.37,2013-02-24 23:21:00,
2013-02-24 18:26:00,30.3,26.0,30.00,SSW,210,3.7,17.3,84,0.00,CLR,,0.00,WeatherDisplay:10.37,2013-02-24 23:26:00,
2013-02-24 18:31:00,30.3,26.0,30.00,SW,228,3.2,17.3,84,0.00,CLR,,0.00,WeatherDisplay:10.37,2013-02-24 23:31:00,
2013-02-24 18:36:00,30.3,26.0,30.00,West,269,3.7,17.3,84,0.00,CLR,,0.00,WeatherDisplay:10.37,2013-02-24 23:36:00,
2013-02-24 18:41:00,30.5,26.2,30.00,WSW,242,3.6,17.3,84,0.00,CLR,,0.00,WeatherDisplay:10.37,2013-02-24 23:41:00,
2013-02-24 18:46:00,30.5,26.2,30.00,WSW,239,5.8,17.3,84,0.00,CLR,,0.00,WeatherDisplay:10.37,2013-02-24 23:46:00,
2013-02-24 18:51:00,30.5,26.5,30.01,SW,219,5.1,17.3,85,0.00,CLR,,0.00,WeatherDisplay:10.37,2013-02-24 23:51:00,
2013-02-24 18:56:00,30.5,26.5,30.01,West,259,3.0,17.3,85,0.00,CLR,,0.00,WeatherDisplay:10.37,2013-02-24 23:56:00,
2013-02-24 19:01:00,30.6,26.6,30.01,SW,222,4.2,17.3,85,0.00,CLR,,0.00,WeatherDisplay:10.37,2013-02-25 00:01:00,
2013-02-24 19:06:00,30.7,26.7,30.01,West,280,3.2,17.3,85,0.00,CLR,,0.00,WeatherDisplay:10.37,2013-02-25 00:06:00,
2013-02-24 19:11:00,30.7,26.7,30.01,WSW,248,5.9,17.3,85,0.00,CLR,,0.00,WeatherDisplay:10.37,2013-02-25 00:11:00,
2013-02-24 19:16:00,30.8,26.8,30.01,SW,235,5.1,17.3,85,0.00,CLR,,0.00,WeatherDisplay:10.37,2013-02-25 00:16:00,
2013-02-24 19:21:00,30.9,26.9,30.02,SSW,212,7.3,17.3,85,0.00,CLR,,0.00,WeatherDisplay:10.37,2013-02-25 00:21:00,
2013-02-24 19:26:00,30.9,26.9,30.02,SW,221,2.8,17.3,85,0.00,CLR,,0.00,WeatherDisplay:10.37,2013-02-25 00:26:00,
2013-02-24 19:31:00,30.9,26.9,30.02,SW,236,4.6,17.3,85,0.00,CLR,,0.00,WeatherDisplay:10.37,2013-02-25 00:31:00,
2013-02-24 19:36:00,30.7,26.7,30.02,WSW,239,3.3,17.3,85,0.00,CLR,,0.00,WeatherDisplay:10.37,2013-02-25 00:36:00,
2013-02-24 19:41:00,30.6,26.9,30.02,West,267,4.7,17.3,86,0.00,CLR,,0.00,WeatherDisplay:10.37,2013-02-25 00:41:00,
2013-02-24 19:46:00,30.7,27.0,30.03,WSW,250,2.2,17.3,86,0.00,CLR,,0.00,WeatherDisplay:10.37,2013-02-25 00:46:00,
2013-02-24 19:51:00,30.7,27.0,30.02,WSW,255,4.0,17.3,86,0.00,CLR,,0.00,WeatherDisplay:10.37,2013-02-25 00:51:00,
2013-02-24 19:56:00,30.8,27.1,30.03,SSW,212,3.2,17.3,86,0.00,CLR,,0.00,WeatherDisplay:10.37,2013-02-25 00:56:00,
2013-02-24 20:01:00,30.8,27.1,30.03,WSW,253,7.0,17.3,86,0.00,CLR,,0.00,WeatherDisplay:10.37,2013-02-25 01:01:00,
2013-02-24 20:06:00,30.8,27.1,30.03,WSW,242,3.8,17.3,86,0.00,CLR,,0.00,WeatherDisplay:10.37,2013-02-25 01:06:00,
2013-02-24 20:11:00,30.8,27.4,30.03,SW,224,2.8,17.3,87,0.00,CLR,,0.00,WeatherDisplay:10.37,2013-02-25 01:11:00,
2013-02-24 20:16:00,30.8,27.1,30.03,SW,222,4.6,17.3,86,0.00,CLR,,0.00,WeatherDisplay:10.37,2013-02-25 01:16:00,
2013-02-24 20:21:00,30.9,27.2,30.03,WSW,248,7.4,17.3,86,0.00,CLR,,0.00,WeatherDisplay:10.37,2013-02-25 01:21:00,
2013-02-24 20:26:00,31.0,27.3,30.03,SW,219,3.1,17.3,86,0.00,CLR,,0.00,WeatherDisplay:10.37,2013-02-25 01:26:00,
2013-02-24 20:31:00,31.0,27.3,30.04,SW,217,3.0,17.3,86,0.00,CLR,,0.00,WeatherDisplay:10.37,2013-02-25 01:31:00,
2013-02-24 20:36:00,31.1,27.4,30.04,West,279,2.4,17.3,86,0.00,CLR,,0.00,WeatherDisplay:10.37,2013-02-25 01:36:00,
2013-02-24 20:41:00,31.2,27.5,30.04,WSW,252,3.0,17.3,86,0.00,CLR,,0.00,WeatherDisplay:10.37,2013-02-25 01:41:00,
2013-02-24 20:46:00,31.3,27.3,30.04,WSW,248,2.7,17.3,85,0.00,CLR,,0.00,WeatherDisplay:10.37,2013-02-25 01:46:00,
2013-02-24 20:51:00,31.3,27.3,30.04,SW,219,4.4,17.3,85,0.00,CLR,,0.00,WeatherDisplay:10.37,2013-02-25 01:51:00,
2013-02-24 20:56:00,31.4,27.4,30.05,WSW,238,2.9,17.3,85,0.00,CLR,,0.00,WeatherDisplay:10.37,2013-02-25 01:56:00,
2013-02-24 21:01:00,31.4,27.4,30.05,West,263,4.0,17.3,85,0.00,CLR,,0.00,WeatherDisplay:10.37,2013-02-25 02:01:00,
2013-02-24 21:06:00,31.4,27.4,30.05,WSW,253,2.8,17.3,85,0.00,CLR,,0.00,WeatherDisplay:10.37,2013-02-25 02:06:00,
2013-02-24 21:11:00,31.4,27.4,30.05,West,276,1.8,17.3,85,0.00,CLR,,0.00,WeatherDisplay:10.37,2013-02-25 02:11:00,
2013-02-24 21:16:00,31.4,27.7,30.05,West,262,3.3,17.3,86,0.00,CLR,,0.00,WeatherDisplay:10.37,2013-02-25 02:16:00,
2013-02-24 21:21:00,31.4,27.7,30.05,West,264,3.0,17.3,86,0.00,CLR,,0.00,WeatherDisplay:10.37,2013-02-25 02:21:00,
2013-02-24 21:26:00,31.4,27.7,30.05,WSW,240,6.0,17.3,86,0.00,CLR,,0.00,WeatherDisplay:10.37,2013-02-25 02:26:00,
2013-02-24 21:31:00,31.3,27.6,30.05,SW,232,3.7,17.3,86,0.00,CLR,,0.00,WeatherDisplay:10.37,2013-02-25 02:31:00,
2013-02-24 21:36:00,31.3,27.6,30.05,WNW,285,6.4,17.3,86,0.00,CLR,,0.00,WeatherDisplay:10.37,2013-02-25 02:36:00,
2013-02-24 21:41:00,31.3,27.6,30.05,SW,222,3.2,17.3,86,0.00,CLR,,0.00,WeatherDisplay:10.37,2013-02-25 02:41:00,
2013-02-24 21:46:00,31.4,27.7,30.05,WSW,248,3.3,17.3,86,0.00,CLR,,0.00,WeatherDisplay:10.37,2013-02-25 02:46:00,
2013-02-24 21:51:00,31.4,27.7,30.05,West,266,3.8,17.3,86,0.00,CLR,,0.00,WeatherDisplay:10.37,2013-02-25 02:51:00,
2013-02-24 21:56:00,31.5,27.8,30.05,West,273,3.2,17.3,86,0.00,CLR,,0.00,WeatherDisplay:10.37,2013-02-25 02:56:00,
2013-02-24 22:01:00,31.5,27.8,30.05,WSW,250,3.9,17.3,86,0.00,CLR,,0.00,WeatherDisplay:10.37,2013-02-25 03:01:00,
2013-02-24 22:06:00,31.4,27.7,30.05,SW,226,6.0,17.3,86,0.00,CLR,,0.00,WeatherDisplay:10.37,2013-02-25 03:06:00,
2013-02-24 22:11:00,31.4,27.7,30.05,WSW,243,3.4,17.3,86,0.00,CLR,,0.00,WeatherDisplay:10.37,2013-02-25 03:11:00,
2013-02-24 22:16:00,31.4,27.7,30.05,SW,236,3.3,17.3,86,0.00,CLR,,0.00,WeatherDisplay:10.37,2013-02-25 03:16:00,
2013-02-24 22:21:00,31.4,27.7,30.05,West,271,3.5,17.3,86,0.00,CLR,,0.00,WeatherDisplay:10.37,2013-02-25 03:21:00,
2013-02-24 22:26:00,31.4,27.7,30.05,WSW,245,2.6,17.3,86,0.00,CLR,,0.00,WeatherDisplay:10.37,2013-02-25 03:26:00,
2013-02-24 22:31:00,31.4,27.4,30.05,SW,236,4.4,17.3,85,0.00,CLR,,0.00,WeatherDisplay:10.37,2013-02-25 03:31:00,
2013-02-24 22:36:00,31.5,27.5,30.05,West,269,4.1,17.3,85,0.00,CLR,,0.00,WeatherDisplay:10.37,2013-02-25 03:36:00,
2013-02-24 22:41:00,31.5,27.5,30.05,WSW,253,1.7,17.3,85,0.00,CLR,,0.00,WeatherDisplay:10.37,2013-02-25 03:41:00,
2013-02-24 22:46:00,31.6,27.6,30.05,West,263,4.1,17.3,85,0.00,CLR,,0.00,WeatherDisplay:10.37,2013-02-25 03:46:00,
2013-02-24 22:51:00,31.7,27.4,30.05,West,260,4.0,17.3,84,0.00,CLR,,0.00,WeatherDisplay:10.37,2013-02-25 03:51:00,
2013-02-24 22:56:00,31.9,27.3,30.05,WSW,255,5.1,17.3,83,0.00,CLR,,0.00,WeatherDisplay:10.37,2013-02-25 03:56:00,
2013-02-24 23:01:00,32.0,27.4,30.05,West,274,3.5,17.3,83,0.00,CLR,,0.00,WeatherDisplay:10.37,2013-02-25 04:01:00,
2013-02-24 23:06:00,32.0,27.4,30.05,West,263,2.6,17.3,83,0.00,CLR,,0.00,WeatherDisplay:10.37,2013-02-25 04:06:00,
2013-02-24 23:11:00,32.0,27.1,30.06,West,264,3.1,17.3,82,0.00,CLR,,0.00,WeatherDisplay:10.37,2013-02-25 04:11:00,
2013-02-24 23:16:00,32.0,27.1,30.06,West,271,5.4,17.3,82,0.00,CLR,,0.00,WeatherDisplay:10.37,2013-02-25 04:16:00,
2013-02-24 23:21:00,32.1,27.2,30.06,West,277,6.0,17.3,82,0.00,CLR,,0.00,WeatherDisplay:10.37,2013-02-25 04:21:00,
2013-02-24 23:26:00,32.1,26.9,30.06,WSW,250,2.5,17.3,81,0.00,CLR,,0.00,WeatherDisplay:10.37,2013-02-25 04:26:00,
2013-02-24 23:31:00,32.1,26.9,30.06,SW,233,4.3,17.3,81,0.00,CLR,,0.00,WeatherDisplay:10.37,2013-02-25 04:31:00,
2013-02-24 23:36:00,32.2,27.0,30.06,West,263,3.9,17.3,81,0.00,CLR,,0.00,WeatherDisplay:10.37,2013-02-25 04:36:00,
2013-02-24 23:41:00,32.2,27.0,30.06,SW,219,5.7,17.3,81,0.00,CLR,,0.00,WeatherDisplay:10.37,2013-02-25 04:41:00,
2013-02-24 23:46:00,32.2,27.0,30.06,WSW,239,3.2,17.3,81,0.00,CLR,,0.00,WeatherDisplay:10.37,2013-02-25 04:46:00,
2013-02-24 23:51:00,32.2,27.0,30.06,SSW,208,3.0,10.4,81,0.00,CLR,,0.00,WeatherDisplay:10.37,2013-02-25 04:51:00,
2013-02-24 23:56:00,32.2,27.0,30.07,WNW,285,4.5,10.4,81,0.00,CLR,,0.00,WeatherDisplay:10.37,2013-02-25 04:56:00,